Change the Weather History Date:

Saturday, July 27, 2013

  Actual Average Record
Temperature  
Mean Temperature 88 °F -  
Max Temperature 102 °F 103 °F 113 °F (2011)
Min Temperature 75 °F 76 °F 73 °F (2008)
Cooling Degree Days 24    
Growing Degree Days 38 (Base 50)    
Moisture  
Dew Point 54 °F    
Average Humidity 29    
Maximum Humidity 51    
Minimum Humidity 15    
Precipitation  
Precipitation 0.00 in 0.00 in - ()
Sea Level Pressure  
Sea Level Pressure 29.65 in    
Wind  
Wind Speed 5 mph ()    
Max Wind Speed 12 mph    
Max Gust Speed -    
Visibility 6.0 miles    
Events      
Averages and records for this station are not official NWS values.
T = Trace of Precipitation, MM = Missing Value Source: Averaged Metar Reports

Daily Weather History Graph

Daily Weather History Graph

Search for Another Location

Airport or City:

Trip Planner

Search our weather history database for the weather conditions in past years. The results will help you decide how hot, cold, wet, or windy it might be!

Date:

Astronomy

Jul. 27, 2013 Rise Set
Actual Time 5:13 AM EET 6:37 PM EET
Civil Twilight 4:48 AM EET 7:02 PM EET
Nautical Twilight 4:18 AM EET 7:32 PM EET
Astronomical Twilight 3:47 AM EET 8:03 PM EET
Moon 9:54 PM EET (7/27) 9:54 AM EET (7/27)
Length of Visible Light 14h 14m
Length of Day
13h 24m
Waning Gibbous, 73% of the Moon is Illuminated
Jul 27
Waning Gibbous
Jul 29
Last Quarter
Aug 6
New
Aug 14
First Quarter
Aug 21
Full

Hourly Weather History & Observations

Time (EET) Temp. Heat Index Dew Point Humidity Pressure Visibility Wind Dir Wind Speed Gust Speed Precip Events Conditions
12:00 AM 82.4 °F - 51.8 °F 35% 29.65 in - SW 2.3 mph - N/A   Clear
1:00 AM 82.4 °F 83.4 °F 62.6 °F 51% 29.65 in - South 4.6 mph - N/A   Clear
2:00 AM 81 °F - 52 °F 26% 29.63 in 6 mi SSW 5.8 mph - -  
2:00 AM 80.6 °F - 51.8 °F 37% 29.65 in - SSW 5.8 mph - N/A   Clear
3:00 AM 78.8 °F - 51.8 °F 39% 29.65 in - SSW 4.6 mph - N/A   Clear
4:00 AM 78.8 °F - 50.0 °F 36% 29.65 in - SW 6.9 mph - N/A   Clear
5:00 AM 77.0 °F - 46.4 °F 34% 29.65 in - WSW 9.2 mph - N/A   Clear
6:00 AM 78.8 °F - 48.2 °F 34% 29.68 in - WSW 6.9 mph - N/A   Clear
7:00 AM 80.6 °F 80.3 °F 53.6 °F 39% 29.68 in - WSW 6.9 mph - N/A   Clear
8:00 AM 87 °F - 57 °F 26% 29.65 in 6 mi SW 3.5 mph - -  
8:00 AM 87.8 °F 86.5 °F 57.2 °F 35% 29.68 in - SW 3.5 mph - N/A   Clear
9:00 AM 91.4 °F 91.4 °F 60.8 °F 36% 29.68 in - West 4.6 mph - N/A   Clear
10:00 AM 95.0 °F 95.2 °F 60.8 °F 32% 29.65 in - WNW 2.3 mph - N/A   Clear
11:00 AM 96.8 °F 98.0 °F 62.6 °F 32% 29.65 in - North 3.5 mph - N/A   Clear
12:00 PM 100.4 °F 101.3 °F 60.8 °F 27% 29.65 in - NNW 4.6 mph - N/A   Clear
1:00 PM 102.2 °F 103.6 °F 60.8 °F 26% 29.65 in - West 4.6 mph - N/A   Clear
2:00 PM 101 °F - 58 °F 15% 29.62 in 6 mi West 11.5 mph - -  
2:00 PM 100.4 °F 99.7 °F 57.2 °F 24% 29.62 in - West 11.5 mph - N/A   Clear
3:00 PM 102.2 °F 101.4 °F 57.2 °F 22% 29.62 in - West 8.1 mph - N/A   Clear
4:00 PM 100.4 °F 98.8 °F 55.4 °F 22% 29.62 in - WNW 11.5 mph - N/A   Clear
5:00 PM 98.6 °F 96.4 °F 53.6 °F 22% 29.62 in - WNW 8.1 mph - N/A   Clear
6:00 PM 96.8 °F - 48.2 °F 19% 29.62 in - WNW 6.9 mph - N/A   Clear
7:00 PM 93.2 °F - 46.4 °F 20% 29.62 in - WNW 3.5 mph - N/A   Clear
8:00 PM 89 °F - 47 °F 15% 29.64 in 6 mi West 2.3 mph - -  
8:00 PM 87.8 °F - 48.2 °F 25% 29.65 in - West 2.3 mph - N/A   Clear
9:00 PM 86.0 °F - 50.0 °F 29% 29.65 in - SW 3.5 mph - N/A   Clear
11:00 PM 86.0 °F - 48.2 °F 27% 29.68 in - SSE 2.3 mph - N/A   Clear